Temp
1 0 -0 -0 -1 -2 -2 -2 -2 -2 -3 -3 -3 -3 -3 -4 -5 -4 -5 -6 -8 -8 -8 -8 -7 -7 -8 -7 -7 -7 -7 -7 -7 -7 -8 -8 -7 -8 -8 -8 -7 -7 -6 -6
-0 -0 -1 -1 -2 -2 -2 -2 -2 -2 -2 -2 -3 -4 -5 -5 -5 -6 -7 -9 -10 -8 -8 -8 -8 -7 -8 -7 -7 -7 -7 -7 -7 -8 -9 -8 -8 -8 -8 -8 -8 -7 -7 -7
-2 -1 -1 -1 -3 -3 -3 -3 -3 -3 -3 -4 -5 -5 -5 -5 -6 -7 -8 -8 -9 -11 -10 -8 -8 -8 -8 -8 -8 -7 -7 -8 -8 -9 -9 -9 -9 -9 -9 -9 -9 -9 -8 -8
-4 -3 -8 -2 -3 -3 -4 -4 -4 -4 -5 -5 -5 -5 -5 -7 -8 -8 -8 -9 -10 -11 -10 -9 -9 -8 -8 -8 -8 -7 -8 -9 -9 -9 -9 -9 -9 -10 -10 -10 -10 -11 -10 -10
-4 -5 -1 -2 -3 -4 -3 -4 -4 -5 -5 -5 -5 -5 -6 -8 -8 -8 -9 -9 -9 -10 -9 -9 -9 -8 -9 -8 -8 -8 -9 -9 -9 -9 -10 -10 -10 -10 -10 -11 -12 -11 -11 -11
-5 -5 -7 -3 -3 -3 -4 -4 -4 -5 -6 -6 -5 -4 -6 -7 -8 -8 -9 -8 -9 -9 -9 -9 -8 -9 -9 -8 -8 -9 -9 -10 -10 -10 -11 -11 -11 -12 -12 -13 -12 -11 -11 -10
-5 -5 -4 -2 -3 -4 -4 -4 -5 -6 -6 -6 -5 -6 -7 -8 -8 -8 -8 -8 -9 -9 -9 -9 -8 -9 -9 -9 -10 -10 -10 -10 -11 -11 -12 -12 -12 -13 -13 -12 -12 -12 -11 -11
-5 -5 -5 -3 -4 -4 -4 -5 -5 -6 -7 -6 -6 -6 -7 -8 -8 -8 -9 -9 -9 -8 -8 -9 -9 -9 -9 -10 -10 -10 -11 -11 -12 -12 -12 -12 -12 -13 -13 -13 -12 -12 -12 -12
-3 -3 -3 -3 -4 -4 -4 -5 -5 -6 -6 -6 -6 -6 -7 -7 -8 -9 -9 -9 -9 -9 -9 -9 -10 -10 -11 -11 -11 -11 -12 -12 -12 -12 -12 -12 -13 -13 -13 -13 -13 -13 -13 -13
-4 -4 -4 -4 -4 -5 -5 -5 -6 -6 -6 -6 -7 -7 -7 -8 -8 -9 -9 -10 -10 -10 -10 -10 -10 -10 -11 -11 -12 -13 -13 -12 -12 -12 -12 -13 -13 -13 -13 -13 -13 -13 -13 -13
-4 -4 -4 -5 -5 -5 -6 -6 -6 -6 -6 -6 -7 -7 -7 -8 -9 -9 -9 -9 -10 -10 -10 -10 -11 -11 -12 -12 -13 -12 -12 -12 -12 -13 -13 -13 -13 -13 -13 -13 -13 -13 -13 -14
-4 -4 -5 -5 -5 -6 -6 -6 -6 -7 -7 -7 -7 -8 -8 -8 -9 -9 -10 -10 -10 -10 -10 -11 -11 -12 -12 -13 -12 -12 -12 -12 -12 -12 -13 -13 -13 -13 -14 -14 -14 -14 -14 -15
-4 -5 -5 -6 -6 -6 -6 -6 -7 -7 -7 -7 -8 -8 -8 -9 -9 -9 -10 -10 -10 -11 -11 -11 -12 -12 -12 -12 -12 -12 -12 -12 -12 -13 -13 -13 -13 -14 -14 -14 -15 -15 -14 -14
-4 -5 -6 -7 -6 -7 -6 -7 -7 -8 -8 -8 -8 -8 -9 -9 -9 -10 -10 -11 -11 -11 -11 -12 -12 -12 -12 -11 -12 -12 -12 -12 -13 -13 -13 -14 -14 -15 -15 -14 -14 -14 -15 -15
-6 -6 -7 -7 -7 -6 -6 -7 -8 -9 -9 -9 -9 -9 -9 -10 -10 -10 -11 -11 -11 -11 -12 -11 -11 -12 -11 -11 -12 -12 -12 -12 -12 -13 -13 -14 -14 -14 -14 -15 -15 -15 -16 -16
-6 -7 -6 -7 -7 -7 -7 -7 -9 -9 -10 -10 -10 -10 -10 -10 -11 -11 -12 -12 -11 -12 -12 -11 -11 -11 -11 -11 -12 -12 -12 -12 -13 -13 -13 -14 -14 -15 -15 -15 -15 -15 -15 -15
-6 -7 -7 -7 -7 -7 -7 -8 -9 -10 -10 -10 -11 -11 -11 -11 -11 -11 -12 -12 -12 -12 -11 -11 -11 -11 -11 -11 -12 -12 -12 -12 -12 -13 -13 -13 -14 -15 -15 -15 -15 -15 -16 -16
-7 -7 -7 -7 -7 -7 -8 -8 -9 -9 -10 -11 -11 -11 -12 -12 -12 -12 -12 -11 -12 -12 -12 -11 -11 -11 -11 -11 -11 -12 -12 -12 -12 -12 -13 -13 -14 -15 -15 -15 -15 -15 -16 -17
-7 -7 -7 -7 -7 -8 -8 -8 -9 -9 -10 -11 -11 -12 -12 -12 -12 -12 -11 -12 -12 -12 -12 -11 -11 -11 -11 -11 -11 -11 -11 -11 -12 -12 -13 -13 -14 -15 -15 -16 -16 -16 -16 -17
-7 -8 -7 -7 -8 -8 -9 -9 -10 -10 -11 -11 -12 -12 -12 -12 -12 -12 -12 -11 -12 -12 -11 -11 -11 -11 -11 -11 -11 -11 -11 -12 -12 -12 -13 -13 -14 -14 -15 -16 -16 -16 -17 -17
-8 -8 -8 -8 -8 -8 -9 -9 -10 -11 -11 -11 -12 -13 -12 -12 -12 -11 -11 -11 -12 -12 -11 -11 -11 -11 -11 -11 -11 -11 -12 -12 -12 -12 -13 -13 -14 -14 -15 -16 -16 -17 -17 -17
-8 -8 -8 -8 -8 -8 -9 -9 -10 -11 -11 -11 -11 -11 -11 -12 -12 -11 -11 -11 -12 -11 -11 -11 -11 -11 -11 -11 -11 -12 -12 -12 -12 -12 -13 -13 -14 -14 -15 -16 -16 -17 -17 -17
-8 -8 -8 -8 -8 -9 -9 -10 -10 -10 -11 -11 -11 -11 -11 -12 -11 -11 -11 -11 -11 -11 -11 -11 -11 -11 -11 -11 -12 -12 -12 -12 -12 -12 -13 -13 -14 -14 -15 -15 -16 -17 -17 -17
-8 -8 -8 -8 -8 -9 -9 -9 -10 -10 -11 -11 -11 -11 -11 -11 -11 -11 -11 -11 -11 -11 -11 -11 -11 -11 -11 -11 -12 -12 -12 -12 -12 -12 -12 -13 -14 -14 -15 -15 -16 -16 -17 -18
-8 -8 -8 -8 -9 -9 -9 -9 -10 -10 -10 -11 -11 -11 -11 -11 -11 -11 -11 -11 -11 -11 -11 -11 -11 -11 -11 -12 -12 -12 -12 -12 -12 -12 -13 -13 -14 -14 -14 -15 -15 -16 -16 -17
-8 -8 -8 -8 -9 -9 -9 -10 -10 -10 -10 -11 -11 -11 -11 -11 -11 -11 -11 -11 -11 -11 -11 -11 -11 -11 -12 -12 -12 -12 -12 -12 -12 -12 -13 -13 -14 -14 -14 -14 -15 -15 -16 -16
-8 -8 -9 -9 -9 -9 -9 -10 -10 -10 -10 -10 -10 -11 -11 -11 -11 -11 -11 -11 -11 -11 -11 -11 -11 -11 -11 -12 -12 -12 -12 -12 -12 -13 -13 -13 -13 -14 -14 -14 -15 -15 -15 -16
Height
3152 3151 3149 3147 3146 3145 3144 3142 3140 3134 3129 3124 3118 3112 3108 3102 3093 3084 3075 3069 3061 3057 3053 3049 3044 3042 3038 3034 3027 3020 3013 3005 2999 2991 2983 2978 2974 2969 2966 2962 2959 2954 2951 2947
3147 3145 3143 3142 3142 3140 3139 3137 3135 3130 3127 3123 3118 3110 3103 3095 3081 3068 3059 3053 3050 3047 3042 3042 3039 3037 3034 3030 3024 3016 3009 3002 2996 2989 2982 2977 2973 2968 2964 2961 2957 2953 2950 2946
3141 3141 3140 3136 3135 3135 3134 3132 3132 3127 3122 3115 3109 3102 3093 3079 3068 3058 3049 3042 3035 3034 3034 3036 3032 3031 3030 3026 3020 3012 3007 2999 2993 2988 2982 2977 2972 2967 2963 2959 2955 2951 2947 2944
3140 3139 3139 3131 3131 3130 3129 3127 3126 3122 3119 3114 3104 3094 3086 3075 3061 3053 3043 3035 3031 3029 3031 3033 3030 3029 3027 3023 3016 3010 3005 2997 2991 2986 2981 2976 2972 2967 2963 2959 2956 2953 2950 2946
3139 3136 3131 3129 3127 3127 3125 3122 3118 3116 3113 3109 3099 3087 3079 3068 3061 3053 3045 3039 3034 3031 3032 3030 3027 3028 3025 3020 3013 3008 3002 2996 2991 2986 2981 2976 2972 2968 2964 2960 2958 2955 2952 2949
3135 3135 3128 3122 3122 3122 3121 3115 3112 3112 3108 3098 3088 3077 3072 3067 3061 3056 3048 3044 3038 3035 3033 3032 3030 3027 3023 3016 3012 3006 3000 2996 2991 2986 2981 2976 2972 2968 2965 2962 2960 2957 2954 2951
3129 3127 3121 3117 3117 3117 3118 3116 3108 3106 3099 3092 3085 3079 3072 3069 3064 3058 3051 3046 3042 3041 3037 3034 3029 3025 3019 3014 3010 3004 2999 2995 2991 2986 2982 2978 2974 2971 2968 2965 2962 2960 2956 2953
3126 3125 3117 3111 3113 3115 3111 3107 3103 3099 3093 3088 3083 3079 3073 3069 3065 3058 3053 3049 3046 3042 3037 3032 3028 3023 3018 3013 3008 3003 3000 2996 2993 2988 2985 2981 2977 2974 2971 2968 2965 2962 2958 2954
3118 3114 3110 3111 3108 3105 3103 3100 3098 3093 3090 3084 3081 3077 3072 3068 3064 3058 3053 3050 3045 3041 3036 3031 3027 3023 3018 3012 3007 3005 3002 2999 2995 2991 2988 2984 2981 2977 2974 2971 2968 2964 2960 2956
3112 3107 3105 3105 3102 3100 3098 3096 3093 3088 3085 3080 3078 3075 3070 3066 3062 3057 3053 3050 3044 3039 3035 3031 3027 3022 3018 3013 3010 3008 3005 3002 2998 2994 2990 2986 2982 2979 2975 2972 2969 2965 2962 2957
3106 3103 3101 3100 3099 3097 3095 3092 3086 3082 3080 3077 3075 3072 3068 3064 3060 3056 3052 3049 3044 3040 3035 3031 3027 3023 3019 3016 3013 3011 3008 3004 3000 2996 2992 2988 2984 2981 2977 2973 2970 2967 2962 2958
3099 3101 3098 3097 3094 3093 3091 3087 3082 3078 3074 3073 3071 3068 3065 3062 3058 3054 3051 3048 3044 3039 3035 3032 3029 3025 3023 3020 3017 3014 3010 3007 3003 2998 2994 2990 2986 2982 2979 2975 2971 2967 2963 2959
3091 3093 3093 3092 3089 3086 3082 3079 3076 3074 3070 3068 3066 3064 3061 3058 3055 3053 3049 3046 3043 3039 3036 3033 3031 3029 3027 3023 3019 3016 3013 3009 3005 3000 2996 2992 2988 2985 2981 2977 2973 2969 2965 2961
3085 3086 3085 3085 3081 3078 3075 3072 3069 3067 3066 3064 3062 3060 3058 3056 3053 3051 3048 3045 3043 3040 3037 3035 3033 3032 3029 3025 3022 3019 3016 3012 3008 3004 3000 2996 2992 2988 2984 2981 2978 2974 2969 2965
3080 3080 3080 3079 3076 3072 3068 3066 3063 3062 3061 3059 3058 3057 3055 3054 3051 3049 3046 3044 3042 3041 3039 3038 3036 3034 3031 3028 3025 3022 3019 3016 3012 3008 3003 2999 2996 2993 2989 2985 2981 2976 2972 2969
3075 3076 3075 3074 3070 3065 3063 3060 3058 3057 3056 3055 3054 3053 3052 3051 3048 3046 3045 3044 3043 3043 3042 3040 3038 3036 3034 3031 3028 3025 3022 3019 3014 3010 3007 3004 3000 2997 2993 2989 2984 2980 2977 2972
3068 3070 3070 3068 3064 3060 3057 3055 3054 3053 3052 3051 3051 3049 3048 3048 3047 3046 3046 3045 3045 3045 3043 3041 3040 3039 3037 3034 3031 3029 3025 3021 3018 3015 3012 3008 3003 2999 2995 2992 2988 2983 2978 2973
3065 3064 3063 3062 3059 3055 3053 3051 3050 3049 3049 3048 3047 3047 3047 3047 3046 3046 3047 3048 3046 3046 3045 3044 3042 3041 3039 3037 3034 3031 3028 3026 3023 3020 3015 3011 3007 3003 3000 2995 2990 2985 2981 2977
3062 3060 3060 3058 3055 3052 3050 3049 3049 3047 3046 3046 3046 3047 3047 3047 3047 3048 3049 3049 3048 3047 3047 3046 3044 3043 3042 3040 3037 3035 3033 3030 3027 3024 3019 3015 3011 3007 3002 2998 2994 2989 2985 2980
3058 3058 3057 3055 3052 3051 3050 3049 3048 3047 3047 3046 3046 3046 3047 3049 3049 3050 3051 3050 3049 3049 3049 3047 3046 3045 3044 3043 3041 3039 3037 3035 3031 3027 3024 3019 3015 3010 3005 3001 2997 2992 2987 2982
3056 3056 3055 3054 3053 3052 3050 3049 3048 3048 3049 3049 3048 3048 3050 3051 3052 3052 3052 3052 3053 3052 3051 3050 3048 3047 3047 3046 3045 3043 3041 3038 3035 3032 3027 3023 3018 3013 3008 3004 3000 2995 2990 2985
3054 3054 3054 3054 3054 3053 3051 3050 3049 3049 3050 3050 3051 3051 3051 3052 3053 3054 3055 3055 3056 3056 3054 3053 3052 3051 3050 3049 3049 3046 3044 3042 3039 3035 3031 3026 3021 3016 3012 3007 3003 2998 2993 2988
3052 3053 3053 3054 3053 3052 3051 3051 3050 3051 3051 3052 3052 3052 3053 3054 3055 3056 3056 3057 3057 3058 3057 3056 3056 3055 3053 3052 3051 3049 3048 3045 3041 3038 3035 3029 3024 3020 3015 3011 3006 3001 2996 2991
3051 3052 3053 3052 3052 3051 3051 3051 3051 3051 3051 3052 3052 3053 3054 3055 3056 3057 3058 3059 3059 3060 3058 3058 3058 3058 3056 3055 3054 3053 3051 3048 3045 3042 3037 3032 3028 3023 3019 3014 3009 3004 2999 2994
3050 3051 3052 3051 3051 3051 3051 3051 3051 3051 3051 3051 3052 3053 3055 3056 3058 3059 3059 3060 3061 3061 3061 3060 3060 3060 3058 3057 3057 3055 3053 3051 3048 3045 3040 3036 3031 3027 3023 3018 3013 3007 3002 2997
3049 3050 3050 3049 3050 3050 3050 3051 3051 3051 3051 3051 3052 3053 3055 3056 3058 3059 3060 3061 3061 3062 3062 3062 3062 3061 3060 3060 3059 3057 3056 3054 3051 3048 3043 3039 3035 3031 3027 3022 3016 3011 3005 3000
3047 3048 3048 3048 3049 3049 3050 3050 3050 3050 3051 3051 3052 3053 3055 3056 3057 3059 3060 3061 3061 3062 3063 3062 3062 3062 3062 3061 3060 3059 3058 3056 3053 3050 3046 3042 3038 3035 3030 3025 3020 3014 3009 3004
Wind_Speed
12 11 16 22 19 13 15 19 19 23 24 33 35 41 47 51 54 57 61 57 47 40 31 32 36 25 24 27 36 40 42 36 37 33 28 26 23 21 20 20 18 16 15 13
14 17 15 16 16 15 13 16 21 27 33 34 39 41 46 54 61 64 60 51 37 25 21 30 29 27 21 30 33 40 36 33 32 30 27 26 23 23 22 20 16 12 12 11
6 10 14 17 9 12 14 16 20 27 33 41 40 46 54 61 60 54 48 43 34 26 28 23 24 22 22 27 36 38 34 29 29 27 25 25 24 22 21 19 19 16 12 11
8 11 2 8 7 11 13 19 25 29 30 32 48 49 52 46 45 43 40 31 23 19 18 22 22 18 23 29 35 33 30 27 26 25 23 23 22 21 18 16 16 16 17 18
5 6 16 15 16 11 16 26 31 25 27 45 44 48 42 33 31 29 27 27 24 19 10 22 21 13 22 30 31 28 25 24 24 24 24 23 20 18 16 16 15 16 19 19
9 5 6 7 14 14 21 22 9 27 41 41 44 46 36 25 25 25 24 24 25 22 16 12 16 19 24 25 27 23 23 22 23 22 21 20 17 16 17 18 17 16 16 15
15 9 12 18 20 16 9 14 34 36 39 35 35 34 27 20 21 24 28 25 24 18 18 20 24 24 23 23 22 22 23 22 21 19 17 15 16 14 17 17 17 16 15 15
13 8 13 15 14 14 25 33 34 37 30 29 27 23 18 15 19 20 22 20 21 25 25 24 22 21 21 22 22 22 20 20 17 15 16 17 18 18 17 17 18 17 17 17
12 11 21 22 26 29 33 33 35 31 24 23 20 18 15 18 16 19 19 20 22 23 23 22 22 22 21 21 21 19 18 15 15 16 17 18 17 17 16 16 15 15 14 15
20 28 30 31 30 30 33 30 31 25 22 20 16 17 16 16 16 16 20 24 20 21 23 24 23 22 21 20 18 17 14 15 17 18 19 19 19 17 17 16 15 15 15 16
28 31 33 33 33 29 28 29 25 21 19 17 16 16 15 13 15 18 22 21 19 21 23 22 20 19 18 16 14 13 16 18 18 18 18 18 17 17 17 17 17 18 18 20
32 30 31 27 23 25 27 25 20 17 17 15 14 15 15 15 16 16 15 17 19 20 20 18 17 16 15 14 14 17 18 17 17 18 18 19 19 20 20 20 21 23 23 24
22 23 22 21 23 26 25 23 19 16 15 14 14 14 15 14 13 12 13 16 19 17 15 14 13 11 13 15 16 18 18 18 19 20 20 20 21 22 22 24 24 24 24 25
23 21 20 22 27 27 25 23 19 16 13 12 12 12 11 12 11 13 15 13 13 11 12 12 12 13 13 15 17 17 17 18 19 20 21 21 21 22 24 23 21 22 23 24
22 21 22 24 26 26 24 21 17 14 13 12 13 13 13 13 13 14 12 8 6 8 12 11 12 13 14 16 17 17 19 19 20 21 22 24 23 22 22 23 23 23 24 23
18 18 19 22 24 24 21 19 15 14 14 15 15 15 14 14 11 6 4 5 9 9 9 12 13 13 15 16 17 18 19 21 23 24 24 22 22 21 21 23 24 23 20 20
14 15 18 21 22 21 18 16 13 13 13 14 13 11 9 5 3 5 5 10 11 9 10 13 13 14 15 17 18 19 22 23 24 24 22 23 24 24 24 24 23 24 24 24
12 14 16 17 18 15 12 10 8 8 7 6 4 1 4 5 6 8 11 9 11 11 11 12 13 15 16 17 20 22 23 22 23 23 24 25 24 23 23 24 25 27 25 22
11 12 12 14 12 8 5 2 2 2 3 3 4 4 5 7 12 13 11 11 12 13 11 13 14 16 16 18 21 21 21 22 22 23 24 25 24 24 24 24 24 25 25 22
9 7 9 9 6 4 2 3 4 5 5 5 5 8 8 13 11 12 11 12 13 13 12 14 15 17 18 19 19 19 20 21 23 24 24 25 25 26 25 24 24 25 26 26
6 5 3 4 5 5 7 9 9 10 10 8 12 13 11 8 9 11 13 14 11 11 13 15 17 18 18 17 18 18 19 22 23 23 25 25 27 26 26 24 23 23 25 27
5 3 2 2 3 4 5 7 7 8 7 6 8 5 8 9 9 10 12 13 11 11 14 15 15 16 17 16 16 18 20 21 22 24 25 26 27 28 27 25 23 22 24 26
5 4 4 3 2 3 3 3 3 3 5 4 4 6 8 9 9 10 12 12 12 12 13 14 13 14 15 16 17 18 18 20 22 23 24 26 27 28 28 27 25 23 22 24
5 4 4 3 2 2 2 2 2 2 2 3 5 5 7 9 10 11 11 12 11 11 13 13 12 12 13 15 16 16 17 19 20 22 24 26 27 28 28 28 27 26 24 22
5 5 4 2 1 1 0 1 2 2 2 4 5 8 9 9 9 11 12 11 10 9 10 11 10 10 12 13 13 14 16 17 18 21 23 26 27 28 28 29 29 29 27 23
6 5 4 2 2 2 1 1 2 3 3 4 5 7 9 10 10 11 11 11 10 9 8 9 8 8 9 10 11 14 14 15 17 19 22 24 26 27 28 29 29 30 30 28
5 4 3 2 3 2 2 3 4 4 4 6 5 7 10 11 11 11 11 11 10 8 7 7 6 6 7 7 10 11 12 13 15 17 20 22 24 25 27 28 29 30 31 31
Wind_Direction
271 272 269 273 277 278 273 272 269 284 287 296 302 311 312 312 308 307 308 313 315 310 307 306 301 303 315 328 331 332 335 333 332 334 339 338 336 335 337 337 329 336 330 334
282 279 267 269 276 278 242 265 266 275 287 294 302 309 311 313 316 317 319 314 305 297 324 303 295 321 328 331 329 335 336 332 334 338 339 336 339 338 341 341 335 337 328 336
289 264 280 281 233 235 245 263 280 293 302 310 313 316 326 324 322 322 322 321 313 287 286 323 329 339 328 329 330 337 332 336 339 340 340 340 344 347 345 345 351 354 3 17
275 290 318 185 227 248 273 286 299 303 304 310 318 326 327 329 332 331 338 342 334 325 286 305 324 322 329 326 332 336 333 343 343 341 341 343 344 344 344 360 8 12 13 16
249 233 277 254 238 257 280 300 299 304 312 320 327 331 344 347 352 1 7 9 15 14 338 318 316 317 325 329 336 335 340 346 346 344 346 346 346 347 355 10 12 11 18 18
216 251 237 210 230 263 294 290 298 313 323 331 335 337 351 359 6 4 12 10 9 357 339 344 356 337 330 340 335 339 347 349 348 348 349 347 355 15 24 25 15 10 8 5
239 253 268 254 267 290 301 316 316 321 328 331 339 340 339 355 1 357 7 10 18 12 9 354 344 340 341 341 338 351 352 353 351 356 2 10 21 28 24 15 9 4 2 4
224 244 262 255 276 287 303 309 315 322 325 331 341 338 336 342 350 1 7 19 359 353 353 351 348 344 344 346 351 358 358 0 2 14 23 24 20 15 16 13 2 359 1 3
225 241 265 275 286 295 303 311 313 318 322 329 332 332 326 329 347 0 2 359 350 344 348 352 349 349 354 355 2 5 11 14 27 29 18 16 15 11 8 6 1 2 4 9
241 257 265 273 286 297 302 306 312 312 320 326 322 322 319 329 347 354 351 350 356 357 354 353 352 353 353 359 10 19 23 23 19 14 12 13 10 9 9 7 11 14 17 24
240 255 267 274 284 290 294 304 310 310 317 320 311 311 317 330 340 338 344 347 355 353 349 349 352 357 3 15 24 25 18 14 11 12 12 12 13 17 20 24 30 28 27 27
256 261 264 271 278 288 298 307 309 303 306 311 311 310 310 320 326 334 347 346 348 351 350 354 1 16 31 40 25 21 20 15 15 17 17 17 20 25 27 29 30 27 25 22
259 262 270 281 291 299 309 315 308 300 300 308 312 313 311 317 329 332 344 344 344 350 2 9 22 40 22 26 30 25 19 20 19 21 22 24 25 26 27 29 28 23 20 21
269 272 273 283 299 310 317 312 302 295 296 303 311 313 314 315 325 329 333 340 347 6 27 55 57 30 28 32 31 28 26 26 27 27 27 29 31 31 29 27 24 21 21 25
268 272 274 281 303 310 313 305 296 286 288 295 300 300 303 306 319 323 327 345 29 68 82 52 39 36 38 38 36 34 33 31 32 32 32 32 30 29 28 25 22 21 23 22
257 264 277 294 306 308 309 303 291 286 286 290 292 291 295 302 318 340 35 81 112 91 57 58 49 47 47 45 43 40 38 36 35 32 30 29 29 29 29 28 25 22 22 25
263 284 297 304 307 307 306 302 292 285 287 288 287 287 295 297 104 84 86 120 94 73 71 65 60 52 51 49 47 43 40 36 33 31 29 29 30 28 26 24 23 22 22 23
280 297 304 307 309 309 307 305 300 296 294 292 292 277 144 131 118 117 126 102 98 89 77 73 68 64 58 53 49 44 40 36 33 30 30 30 29 26 25 24 23 22 20 19
287 296 306 314 314 324 339 359 26 70 91 101 124 136 138 138 126 125 120 116 106 93 88 83 77 69 62 55 50 45 41 37 34 32 32 30 27 25 24 23 22 22 22 20
280 287 311 323 343 348 11 67 74 73 79 94 128 133 126 135 126 127 128 117 107 103 97 88 80 72 62 55 51 47 42 39 37 35 32 31 28 26 24 22 21 22 23 23
254 276 313 39 70 88 88 87 90 98 106 90 104 112 120 123 130 136 129 112 105 103 98 89 80 74 67 59 53 49 45 41 39 36 34 32 30 28 25 23 21 21 22 23
231 237 201 127 106 95 88 84 88 108 122 104 117 118 132 131 136 134 123 114 108 99 91 83 78 75 71 63 56 51 47 43 40 37 35 34 32 29 26 23 21 20 22 23
214 216 201 193 143 98 84 82 93 119 144 147 127 127 133 137 140 141 129 120 113 104 92 84 77 74 70 65 58 52 48 44 41 38 36 36 34 30 28 25 23 22 23 24
207 204 197 175 133 83 71 75 83 98 139 169 180 175 156 154 149 144 135 125 118 112 102 92 83 74 70 65 58 52 47 44 40 38 37 37 34 31 29 27 26 24 23 23
197 200 192 170 183 236 304 74 95 106 133 154 161 167 166 161 159 154 144 134 128 120 106 98 89 79 70 65 58 51 46 41 38 36 37 37 34 31 29 28 28 27 26 24
200 205 197 190 229 235 219 180 133 145 156 153 153 164 167 165 164 163 157 149 142 130 119 108 97 83 73 64 57 50 42 38 35 35 36 36 33 31 29 28 28 28 28 26
214 213 191 195 226 219 217 191 170 170 171 160 153 166 172 170 169 170 172 168 156 146 137 122 108 92 76 65 57 48 39 34 33 33 34 33 31 29 28 27 28 28 29 28